Biloxi, MS

7:50 PM CST on February 09, 2016 (GMT -0600)
Keesler Air Force Base

Weather History for KBIX - June, 2013

Change the Weather History Date:

Thursday, June 27, 2013

  Actual Average Record
Temperature  
Mean Temperature 86 °F -  
Max Temperature 92 °F 88 °F 102 °F (1950)
Min Temperature 81 °F 73 °F 60 °F (1974)
Cooling Degree Days 21    
Growing Degree Days 36 (Base 50)    
Moisture  
Dew Point 77 °F    
Average Humidity 74    
Maximum Humidity 87    
Minimum Humidity 61    
Precipitation  
Precipitation 0.00 in - - ()
Sea Level Pressure  
Sea Level Pressure 29.99 in    
Wind  
Wind Speed 7 mph (WSW)    
Max Wind Speed 16 mph    
Max Gust Speed -    
Visibility 10 miles    
Events      
Averages and records for this station are not official NWS values.
T = Trace of Precipitation, MM = Missing Value Source: NWS Daily Summary

Daily Weather History Graph

Daily Weather History Graph

Search for Another Location

Airport or City:

Trip Planner

Search our weather history database for the weather conditions in past years. The results will help you decide how hot, cold, wet, or windy it might be!

Date:

Astronomy

Jun. 27, 2013 Rise Set
Actual Time 5:55 AM CDT 8:01 PM CDT
Civil Twilight 5:28 AM CDT 8:29 PM CDT
Nautical Twilight 4:54 AM CDT 9:02 PM CDT
Astronomical Twilight 4:18 AM CDT 9:38 PM CDT
Moon 11:22 PM CDT (6/27) 10:35 AM CDT (6/27)
Length of Visible Light 15h 01m
Length of Day
14h 05m
Waning Gibbous, 76% of the Moon is Illuminated
Jun 27
Waning Gibbous
Jun 29
Last Quarter
Jul 8
New
Jul 15
First Quarter
Jul 22
Full

Hourly Weather History & Observations

Time (CDT) Temp. Heat Index Dew Point Humidity Pressure Visibility Wind Dir Wind Speed Gust Speed Precip Events Conditions
12:23 AM 84.2 °F 94.1 °F 77.0 °F 79% 30.01 in 10.0 mi SW 10.4 mph - N/A   Mostly Cloudy
12:58 AM 83.1 °F 91.3 °F 76.1 °F 79% 30.02 in 10.0 mi SW 11.5 mph - N/A   Mostly Cloudy
1:58 AM 82.4 °F 90.6 °F 76.8 °F 83% 30.01 in 10.0 mi WSW 10.4 mph - N/A   Partly Cloudy
2:58 AM 82.4 °F 90.6 °F 76.8 °F 83% 30.00 in 10.0 mi WSW 10.4 mph - N/A   Scattered Clouds
3:58 AM 82.2 °F 90.1 °F 76.6 °F 83% 30.01 in 10.0 mi WSW 8.1 mph - N/A   Scattered Clouds
4:43 AM 82.4 °F 90.9 °F 77.0 °F 84% 30.01 in 10.0 mi Variable 3.5 mph - N/A   Mostly Cloudy
4:53 AM 82.4 °F 90.9 °F 77.0 °F 84% 30.01 in 10.0 mi Variable 1.2 mph - N/A   Mostly Cloudy
4:58 AM 82.8 °F 91.6 °F 77.2 °F 83% 30.02 in 10.0 mi Calm Calm - N/A   Mostly Cloudy
5:03 AM 82.4 °F 90.9 °F 77.0 °F 84% 30.01 in 10.0 mi Calm Calm - N/A   Scattered Clouds
5:58 AM 81.0 °F 87.7 °F 76.8 °F 87% 30.02 in 10.0 mi Variable 1.2 mph - N/A   Clear
6:58 AM 81.0 °F 87.7 °F 76.6 °F 87% 30.03 in 10.0 mi Calm Calm - N/A   Clear
7:58 AM 83.7 °F 92.7 °F 76.5 °F 79% 30.03 in 10.0 mi Variable 1.2 mph - N/A   Clear
8:58 AM 85.6 °F 95.5 °F 76.3 °F 73% 30.03 in 10.0 mi Variable 4.6 mph - N/A   Clear
9:58 AM 88.5 °F 99.9 °F 76.5 °F 67% 30.02 in 10.0 mi Variable 3.5 mph - N/A   Scattered Clouds
10:58 AM 90.5 °F 102.1 °F 76.1 °F 62% 30.01 in 10.0 mi Variable 2.3 mph - N/A   Partly Cloudy
11:58 AM 90.3 °F 101.0 °F 75.4 °F 61% 30.02 in 10.0 mi Variable 2.3 mph - N/A   Mostly Cloudy
12:58 PM 90.0 °F 100.2 °F 75.0 °F 61% 30.01 in 10.0 mi West 5.8 mph - N/A   Mostly Cloudy
1:58 PM 91.6 °F 104.9 °F 77.0 °F 62% 29.98 in 10.0 mi SW 15.0 mph - N/A   Scattered Clouds
2:58 PM 91.6 °F 106.3 °F 77.7 °F 64% 29.96 in 10.0 mi SSW 16.1 mph - N/A   Clear
3:58 PM 91.4 °F 105.1 °F 77.0 °F 63% 29.95 in 10.0 mi SW 12.7 mph - N/A   Clear
4:58 PM 91.0 °F 102.9 °F 76.1 °F 61% 29.94 in 10.0 mi SW 12.7 mph - N/A   Clear
5:58 PM 90.3 °F 101.6 °F 75.9 °F 62% 29.93 in 10.0 mi WSW 10.4 mph - N/A   Clear
6:58 PM 89.1 °F 98.5 °F 74.3 °F 62% 29.93 in 10.0 mi WSW 9.2 mph - N/A   Partly Cloudy
7:58 PM 86.2 °F 96.4 °F 76.1 °F 72% 29.93 in 10.0 mi SW 9.2 mph - N/A   Clear
8:58 PM 85.5 °F 96.3 °F 77.2 °F 76% 29.94 in 10.0 mi SW 6.9 mph - N/A   Clear
9:58 PM 84.0 °F 94.8 °F 77.9 °F 82% 29.95 in 10.0 mi WSW 3.5 mph - N/A   Clear
10:58 PM 84.2 °F 93.8 °F 76.8 °F 78% 29.95 in 10.0 mi WSW 3.5 mph - N/A   Clear
11:58 PM 84.6 °F 95.1 °F 77.5 °F 79% 29.94 in 10.0 mi West 3.5 mph - N/A   Clear